Location: Newark
(46.7000°N, 60.6000°W)
Time: 23:57:35
(UTC+00:00)

Transit 2A Rocket - Pass Details

Date: 30 October 2020
Orbit: 588 x 915 km, 66.7° (Epoch: 24 November)

Event Time Altitude Azimuth Distance (km) Brightness Sun altitude
Rises 21:20:53 0° 327° (NNW) 3,316 8.6 -6.0°
Reaches altitude 10° 21:23:27 10° 330° (NNW) 2,329 7.7 -6.5°
Maximum altitude 21:28:44 67° 53° (NE) 782 4.9 -7.3°
Drops below altitude 10° 21:33:29 10° 137° (SE) 2,102 7.0 -8.1°
Sets 21:35:42 0° 140° (SE) 2,966 7.8 -8.5°
